Вернуться в каталог

ATLAS 2A CENTAUR R/B

АктивенHEO
NORAD 26389·ROCKET BODY·🇺🇸 United States

Запущен Jun 30, 2000 с Cape Canaveral Space Force Station

Loading…

Ближайшие Пролёты (ближайшие 24 часа)

TLE

СвежийSource: Space-Track

Эпоха: Sep 14, 2026, 10:35 UTC

1 26389U 00034B   26257.44097943  .00011473  00000-0  12260-2 0  9996
2 26389  26.8351 246.3480 4848171  37.4291 348.1092  5.90638620423196

Отслеживайте ATLAS 2A CENTAUR R/B в реальном времени с AllMySat

Download on the App Store